{"data":{"norad_id":60355,"intl_designator":"2024-138A","name":"STARLINK-32285","alt_names":[],"object_type":"PAYLOAD","status":"ACTIVE","operator":null,"country":"US","launch_date":"2024-08-04","launch_site_code":"AFWTR","launch_vehicle":null,"mission":null,"orbit_class":"UNKNOWN","rcs_meters":null,"size_class":null,"mass_kg":null,"dimensions":null,"purposes":["comms"],"wikipedia_slug":null,"has_3d_model":false,"image_url":null,"decayed_at":null,"tle_current":{"epoch":"2026-05-25T04:21:52.405920Z","epoch_age_seconds":62509,"freshness":"FRESH","line1":"1 60355U 24138A   26145.18185655  .00000549  00000+0  30685-4 0  9997","line2":"2 60355  53.1620 313.9721 0001366  89.5385 270.5773 15.30192996102344","mean_motion":15.30192996,"eccentricity":0.0001366,"inclination_deg":53.162,"raan_deg":313.9721,"arg_perigee_deg":89.5385,"mean_anomaly_deg":270.5773,"bstar":3.0685e-5,"rev_number":10234,"period_min":94.10577644547,"perigee_km":474.29981143125,"apogee_km":476.17215292998,"semimajor_km":6853.3729821806,"source":"CELESTRAK","updated_at":"2026-05-25T13:38:19.237647Z"}}}